GW0392 Weather Reports


Display with metric or nautical units.
time (UTC)temp
F
wind
direction
speed
MPH
gust
MPH
rain 1hr
in
rain 24hr
in
rain mn
in
humidity
%
barometer
mb
20260905174931 85 227 0.0 0.0 0.00 0.00 0.00 86 1013.3
20260905174426 86 237 0.0 0.0 0.00 0.00 0.00 86 1013.5
20260905173922 88 222 0.0 0.0 0.00 0.00 0.00 79 1013.4
20260905173418 91 239 2.0 2.0 0.00 0.00 0.00 72 1013.7
20260905172913 94 265 3.0 3.0 0.00 0.00 0.00 62 1013.5
20260905172410 97 261 3.0 3.0 0.00 0.00 0.00 55 1013.4
20260905171907 97 218 0.0 1.0 0.00 0.00 0.00 52 1013.5
20260905171403 97 221 1.0 5.0 0.00 0.00 0.00 52 1013.3
20260905170859 97 184 2.0 2.0 0.00 0.00 0.00 52 1013.5
20260905170355 96 222 1.0 1.0 0.00 0.00 0.00 54 1013.7
20260905165854 96 206 1.0 1.0 0.00 0.00 0.00 54 1013.8
20260905165349 95 219 0.0 2.0 0.00 0.00 0.00 55 1013.7
20260905164844 96 202 1.0 2.0 0.00 0.00 0.00 56 1013.9
20260905164339 95 223 0.0 1.0 0.00 0.00 0.00 56 1013.8
20260905163835 95 221 0.0 1.0 0.00 0.00 0.00 58 1014.2
20260905163331 95 274 3.0 3.0 0.00 0.00 0.00 57 1014.1
20260905162826 95 224 1.0 1.0 0.00 0.00 0.00 59 1014.4
20260905162320 94 222 0.0 1.0 0.00 0.00 0.00 59 1014.3
20260905161815 93 233 1.0 1.0 0.00 0.00 0.00 61 1014.1
20260905161315 93 226 0.0 1.0 0.00 0.00 0.00 63 1014.1
20260905160813 93 215 1.0 3.0 0.00 0.00 0.00 61 1014.3
20260905160308 93 216 0.0 2.0 0.00 0.00 0.00 62 1014.3
20260905155802 93 218 1.0 1.0 0.00 0.00 0.00 64 1014.5
20260905155301 92 217 1.0 1.0 0.00 0.00 0.00 64 1014.7
20260905154755 91 207 1.0 2.0 0.00 0.00 0.00 65 1014.4
20260905154251 90 221 0.0 0.0 0.00 0.00 0.00 66 1014.4
20260905153746 90 226 0.0 1.0 0.00 0.00 0.00 66 1014.6
20260905153242 90 222 0.0 1.0 0.00 0.00 0.00 66 1014.7
20260905152736 90 222 0.0 0.0 0.00 0.00 0.00 69 1014.6
20260905152231 89 219 1.0 2.0 0.00 0.00 0.00 68 1014.7
20260905151731 89 238 0.0 0.0 0.00 0.00 0.00 70 1014.7
20260905151227 89 221 0.0 0.0 0.00 0.00 0.00 73 1014.9
20260905150726 88 219 0.0 2.0 0.00 0.00 0.00 72 1014.9
20260905150226 87 212 0.0 1.0 0.00 0.00 0.00 71 1014.9
20260905145724 87 215 0.0 1.0 0.00 0.00 0.00 72 1014.9
20260905145219 87 219 0.0 0.0 0.00 0.00 0.00 74 1014.9
20260905144717 86 214 0.0 1.0 0.00 0.00 0.00 73 1015.1
20260905144212 86 214 0.0 2.0 0.00 0.00 0.00 74 1015.2
20260905143711 85 219 0.0 0.0 0.00 0.00 0.00 78 1015.0
20260905143206 85 216 0.0 0.0 0.00 0.00 0.00 77 1015.1
20260905142704 84 218 0.0 1.0 0.00 0.00 0.00 77 1015.2
20260905142159 83 215 0.0 1.0 0.00 0.00 0.00 82 1015.1
20260905141655 83 216 1.0 2.0 0.00 0.00 0.00 83 1015.3
20260905141150 83 205 1.0 1.0 0.00 0.00 0.00 83 1015.2
20260905140645 84 212 0.0 0.0 0.00 0.00 0.00 81 1015.1
20260905140139 83 213 0.0 1.0 0.00 0.00 0.00 82 1015.2
20260905135634 82 216 0.0 1.0 0.00 0.00 0.00 83 1015.3
20260905135130 81 220 0.0 0.0 0.00 0.00 0.00 88 1015.2
20260905134624 80 224 0.0 0.0 0.00 0.00 0.00 89 1015.3
20260905134123 80 222 0.0 0.0 0.00 0.00 0.00 90 1015.3
20260905133619 79 225 0.0 0.0 0.00 0.00 0.00 91 1015.3
20260905133119 79 221 0.0 0.0 0.00 0.00 0.00 92 1015.5
20260905132618 78 220 0.0 0.0 0.00 0.00 0.00 92 1015.4
20260905132113 78 213 1.0 1.0 0.00 0.00 0.00 92 1015.4
20260905131608 77 217 1.0 1.0 0.00 0.00 0.00 94 1015.5
20260905131103 77 222 0.0 0.0 0.00 0.00 0.00 95 1015.6
20260905130603 77 221 0.0 0.0 0.00 0.00 0.00 95 1015.6
20260905130058 76 220 0.0 0.0 0.00 0.00 0.00 96 1015.4
20260905125557 76 220 0.0 0.0 0.00 0.00 0.00 97 1015.4
20260905125053 75 220 0.0 0.0 0.00 0.00 0.00 98 1015.5
20260905124549 75 214 0.0 0.0 0.00 0.00 0.00 99 1015.5
20260905124045 75 222 0.0 0.0 0.00 0.00 0.00 99 1015.5
20260905123540 74 220 0.0 0.0 0.00 0.00 0.00 99 1015.6
20260905123037 74 214 0.0 0.0 0.00 0.00 0.00 99 1015.3
20260905122537 74 222 0.0 0.0 0.00 0.00 0.00 99 1015.7
20260905122031 74 222 0.0 0.0 0.00 0.00 0.00 99 1015.4
20260905121526 74 220 0.0 0.0 0.00 0.00 0.00 99 1015.7
20260905121021 74 202 0.0 1.0 0.00 0.00 0.00 99 1015.5
20260905120515 73 222 0.0 0.0 0.00 0.00 0.00 99 1015.3
20260905120011 73 220 0.0 0.0 0.00 0.00 0.00 99 1015.3
20260905115509 73 224 0.0 0.0 0.00 0.00 0.00 99 1015.2
20260905115004 73 224 0.0 0.0 0.00 0.00 0.00 99 1015.1
20260905114504 73 223 0.0 0.0 0.00 0.00 0.00 99 1015.3
20260905114003 73 220 0.0 0.0 0.00 0.00 0.00 99 1015.0
20260905113458 73 221 0.0 0.0 0.00 0.00 0.00 99 1014.9
20260905112953 73 221 0.0 0.0 0.00 0.00 0.00 99 1015.0
20260905112448 73 221 0.0 0.0 0.00 0.00 0.00 99 1014.9
20260905111943 73 221 0.0 0.0 0.00 0.00 0.00 99 1014.7
20260905111438 73 222 0.0 0.0 0.00 0.00 0.00 99 1014.7
20260905110938 73 225 0.0 0.0 0.00 0.00 0.00 99 1014.6
20260905110431 73 223 0.0 0.0 0.00 0.00 0.00 99 1014.6
20260905105931 73 223 0.0 0.0 0.00 0.00 0.00 99 1014.7
20260905105426 73 221 0.0 0.0 0.00 0.00 0.00 99 1014.6
20260905104926 73 220 0.0 0.0 0.00 0.00 0.00 99 1014.6
20260905104422 73 220 0.0 0.0 0.00 0.00 0.00 99 1014.7
20260905103922 73 221 0.0 0.0 0.00 0.00 0.00 99 1014.4
20260905103418 73 220 0.0 0.0 0.00 0.00 0.00 99 1014.4
20260905102913 73 221 0.0 0.0 0.00 0.00 0.00 99 1014.4
20260905102409 73 221 0.0 0.0 0.00 0.00 0.00 99 1014.3
20260905101910 73 223 0.0 0.0 0.00 0.00 0.00 99 1014.7
20260905101408 73 223 0.0 0.0 0.00 0.00 0.00 99 1014.7
20260905100903 73 224 0.0 0.0 0.00 0.00 0.00 99 1014.3
20260905100359 73 224 0.0 0.0 0.00 0.00 0.00 99 1014.5
20260905095858 74 223 0.0 0.0 0.00 0.00 0.00 99 1014.3
20260905095352 73 223 0.0 0.0 0.00 0.00 0.00 99 1014.4
20260905094847 73 223 0.0 0.0 0.00 0.00 0.00 99 1014.4
20260905094343 74 223 0.0 0.0 0.00 0.00 0.00 99 1014.4
20260905093841 74 223 0.0 0.0 0.00 0.00 0.00 99 1014.1
20260905093337 74 223 0.0 0.0 0.00 0.00 0.00 99 1014.2
20260905092833 74 221 0.0 0.0 0.00 0.00 0.00 99 1014.2
20260905092333 74 221 0.0 0.0 0.00 0.00 0.00 99 1014.5
20260905091828 74 221 0.0 0.0 0.00 0.00 0.00 99 1014.2
20260905091328 74 222 0.0 0.0 0.00 0.00 0.00 99 1014.2
20260905090826 74 221 0.0 0.0 0.00 0.00 0.00 99 1014.1
20260905090322 74 220 0.0 0.0 0.00 0.00 0.00 99 1014.3
20260905085822 74 220 0.0 0.0 0.00 0.00 0.00 99 1014.1
20260905085316 74 223 0.0 0.0 0.00 0.00 0.00 99 1014.1
20260905084812 74 223 0.0 0.0 0.00 0.00 0.00 99 1014.2
20260905084311 74 223 0.0 0.0 0.00 0.00 0.00 99 1014.2
20260905083807 74 221 0.0 0.0 0.00 0.00 0.00 99 1014.0
20260905083303 75 221 0.0 0.0 0.00 0.00 0.00 98 1014.2
20260905082758 75 216 0.0 0.0 0.00 0.00 0.00 98 1014.2
20260905082254 75 221 0.0 0.0 0.00 0.00 0.00 98 1014.3
20260905081753 75 221 0.0 0.0 0.00 0.00 0.00 98 1014.2
20260905081249 75 221 0.0 0.0 0.00 0.00 0.00 98 1014.1
20260905080743 75 221 0.0 0.0 0.00 0.00 0.00 98 1014.0
20260905080242 75 221 0.0 0.0 0.00 0.00 0.00 98 1014.0
20260905075742 75 224 0.0 0.0 0.00 0.00 0.00 98 1014.0
20260905075241 75 220 0.0 0.0 0.00 0.00 0.00 97 1014.1
20260905074739 75 219 0.0 0.0 0.00 0.00 0.00 97 1014.1
20260905074236 75 223 0.0 0.0 0.00 0.00 0.00 97 1014.1
20260905073732 75 224 0.0 0.0 0.00 0.00 0.00 97 1014.0
20260905073227 76 222 0.0 0.0 0.00 0.00 0.00 97 1014.1
20260905072726 76 225 0.0 0.0 0.00 0.00 0.00 97 1014.0
20260905072221 76 225 0.0 0.0 0.00 0.00 0.00 97 1013.8
20260905071718 75 221 0.0 0.0 0.00 0.00 0.00 97 1013.7
20260905071214 76 220 0.0 0.0 0.00 0.00 0.00 97 1013.7
20260905070709 76 223 0.0 0.0 0.00 0.00 0.00 97 1014.0
20260905070204 76 223 0.0 0.0 0.00 0.00 0.00 96 1013.9
20260905065703 76 224 0.0 0.0 0.00 0.00 0.00 96 1014.1
20260905065157 76 221 0.0 0.0 0.00 0.00 0.00 96 1014.0
20260905064653 76 216 0.0 0.0 0.00 0.00 0.00 96 1014.2
20260905064149 76 223 0.0 0.0 0.00 0.00 0.00 96 1014.2
20260905063647 76 223 0.0 0.0 0.00 0.00 0.00 96 1014.2
20260905063143 76 223 0.0 0.0 0.00 0.00 0.00 96 1014.1
20260905062639 76 226 0.0 0.0 0.00 0.00 0.00 96 1014.2
20260905062138 76 221 0.0 0.0 0.00 0.00 0.00 96 1014.0
20260905061633 76 220 0.0 0.0 0.00 0.00 0.00 96 1014.0
20260905061132 76 220 0.0 0.0 0.00 0.00 0.00 97 1014.1
20260905060628 77 215 0.0 0.0 0.00 0.00 0.00 97 1014.3
20260905060124 77 220 0.0 0.0 0.00 0.00 0.00 96 1014.3
20260905055622 77 221 0.0 0.0 0.00 0.00 0.00 96 1014.2
20260905055118 77 221 0.0 0.0 0.00 0.00 0.00 96 1014.4
20260905054614 77 225 0.0 0.0 0.00 0.00 0.00 96 1014.5
20260905054109 77 224 0.0 0.0 0.00 0.00 0.00 96 1014.4
20260905053609 77 225 0.0 0.0 0.00 0.00 0.00 96 1014.5
20260905053104 77 223 0.0 0.0 0.00 0.00 0.00 97 1014.2
20260905052603 77 220 0.0 0.0 0.00 0.00 0.00 97 1014.4
20260905052058 77 220 0.0 0.0 0.00 0.00 0.00 97 1014.2
20260905051554 77 220 0.0 0.0 0.00 0.00 0.00 97 1014.6
20260905051050 77 220 0.0 0.0 0.00 0.00 0.00 96 1014.5
20260905050546 77 220 0.0 0.0 0.00 0.00 0.00 96 1014.3
20260905050043 77 222 0.0 0.0 0.00 0.00 0.00 96 1014.4
20260905045537 77 222 0.0 0.0 0.00 0.00 0.00 96 1014.4
20260905045033 77 221 0.0 0.0 0.00 0.00 0.00 96 1014.6
20260905044532 77 220 0.0 0.0 0.00 0.00 0.00 96 1014.4
20260905044027 77 220 0.0 0.0 0.00 0.00 0.00 96 1014.5
20260905043526 77 221 0.0 0.0 0.00 0.00 0.00 96 1014.5
20260905043022 77 224 0.0 0.0 0.00 0.00 0.00 96 1014.3
20260905042520 77 223 0.0 0.0 0.00 0.00 0.00 95 1014.6
20260905042016 77 221 0.0 0.0 0.00 0.00 0.00 96 1014.5
20260905041511 77 220 0.0 0.0 0.00 0.00 0.00 96 1014.7
20260905041007 77 221 0.0 0.0 0.00 0.00 0.00 96 1014.4
20260905040506 77 221 0.0 0.0 0.00 0.00 0.00 96 1014.8
20260905040005 77 221 0.0 0.0 0.00 0.00 0.00 95 1014.6
20260905035500 78 220 0.0 0.0 0.00 0.00 0.00 95 1014.7
20260905034957 78 221 0.0 0.0 0.00 0.00 0.00 95 1014.7
20260905034458 78 225 0.0 0.0 0.00 0.00 0.00 95 1014.8
20260905033956 78 225 0.0 0.0 0.00 0.00 0.00 95 1014.9
20260905033451 78 221 0.0 0.0 0.00 0.00 0.00 95 1014.8
20260905032946 78 220 0.0 0.0 0.00 0.00 0.00 95 1015.1
20260905032442 78 220 0.0 0.0 0.00 0.00 0.00 95 1015.1
20260905031936 78 219 0.0 0.0 0.00 0.00 0.00 95 1015.1
20260905031432 78 220 0.0 0.0 0.00 0.00 0.00 95 1015.1
20260905030927 78 221 0.0 0.0 0.00 0.00 0.00 95 1015.2
20260905030423 78 220 0.0 0.0 0.00 0.00 0.00 95 1015.2
20260905025921 78 220 0.0 0.0 0.00 0.00 0.00 95 1015.1
20260905025417 78 220 0.0 0.0 0.00 0.00 0.00 94 1015.4
20260905024914 78 220 0.0 0.0 0.00 0.00 0.00 94 1015.4
20260905024408 78 220 0.0 0.0 0.00 0.00 0.00 94 1015.5
20260905023904 78 220 0.0 0.0 0.00 0.00 0.00 94 1015.3
20260905023359 78 220 0.0 0.0 0.00 0.00 0.00 94 1015.4
20260905022857 78 220 0.0 0.0 0.00 0.00 0.00 94 1015.3
20260905022348 79 221 0.0 0.0 0.00 0.00 0.00 94 1015.6
20260905021848 79 221 0.0 0.0 0.00 0.00 0.00 93 1015.2
20260905021343 79 221 0.0 0.0 0.00 0.00 0.00 94 1015.1
20260905020838 79 221 0.0 0.0 0.00 0.00 0.00 93 1015.2
20260905020332 79 221 0.0 0.0 0.00 0.00 0.00 94 1015.2
20260905001707 82 220 0.0 0.0 0.00 0.00 0.00 88 1014.5
20260905001205 82 220 0.0 0.0 0.00 0.00 0.00 88 1014.5
20260905000701 82 220 0.0 0.0 0.00 0.00 0.00 87 1014.4
20260905000157 82 220 0.0 0.0 0.00 0.00 0.00 86 1014.4
20260904235657 82 220 0.0 0.0 0.00 0.00 0.00 86 1014.3
20260904235156 83 220 0.0 0.0 0.00 0.00 0.00 86 1014.8
20260904234651 83 220 0.0 0.0 0.00 0.00 0.00 85 1014.6
20260904234148 83 220 0.0 0.0 0.00 0.00 0.00 85 1014.3
20260904233642 83 220 0.0 0.0 0.00 0.00 0.00 83 1014.4
20260904233138 83 220 0.0 0.0 0.00 0.00 0.00 83 1014.2
20260904232635 84 218 0.0 1.0 0.00 0.00 0.00 83 1014.2
20260904232131 84 204 2.0 2.0 0.00 0.00 0.00 83 1014.2
20260904231626 84 215 1.0 1.0 0.00 0.00 0.00 83 1014.2
20260904231121 84 218 0.0 1.0 0.00 0.00 0.00 84 1014.1
20260904230620 84 218 1.0 1.0 0.00 0.00 0.00 83 1014.1
20260904230116 85 219 0.0 1.0 0.00 0.00 0.00 81 1014.1
20260904225613 86 218 0.0 1.0 0.00 0.00 0.00 80 1013.9
20260904225108 86 212 1.0 2.0 0.00 0.00 0.00 78 1014.0
20260904224603 87 200 0.0 1.0 0.00 0.00 0.00 78 1014.2
20260904224058 87 211 0.0 0.0 0.00 0.00 0.00 79 1014.1
20260904223557 87 219 0.0 0.0 0.00 0.00 0.00 79 1013.9
20260904223053 87 216 0.0 0.0 0.00 0.00 0.00 74 1014.1
20260904222548 87 220 0.0 0.0 0.00 0.00 0.00 75 1014.1
20260904222044 88 221 0.0 0.0 0.00 0.00 0.00 73 1014.1
20260904221538 90 218 0.0 0.0 0.00 0.00 0.00 72 1014.0
20260904221033 91 218 0.0 0.0 0.00 0.00 0.00 68 1013.8
20260904220532 92 221 0.0 0.0 0.00 0.00 0.00 66 1013.9
20260904220028 94 216 0.0 0.0 0.00 0.00 0.00 61 1013.8
20260904215528 95 225 0.0 0.0 0.00 0.00 0.00 56 1013.7
20260904215024 94 225 1.0 1.0 0.00 0.00 0.00 55 1013.5
20260904214519 94 223 0.0 1.0 0.00 0.00 0.00 56 1013.6
20260904214015 94 223 0.0 1.0 0.00 0.00 0.00 57 1013.5
20260904213512 94 228 0.0 2.0 0.00 0.00 0.00 56 1013.7
20260904213010 95 231 1.0 2.0 0.00 0.00 0.00 55 1013.7
20260904212509 97 220 1.0 2.0 0.00 0.00 0.00 48 1013.7
20260904212004 97 233 0.0 0.0 0.00 0.00 0.00 48 1013.4
20260904211458 98 221 0.0 0.0 0.00 0.00 0.00 46 1013.6
20260904210954 98 228 0.0 0.0 0.00 0.00 0.00 46 1013.7
20260904210453 98 223 0.0 0.0 0.00 0.00 0.00 46 1014.0
20260904205948 97 227 0.0 0.0 0.00 0.00 0.00 46 1013.7
20260904205444 97 228 1.0 1.0 0.00 0.00 0.00 46 1013.5
20260904204941 96 228 1.0 1.0 0.00 0.00 0.00 47 1014.0
20260904204436 96 226 0.0 1.0 0.00 0.00 0.00 50 1014.0
20260904203932 97 219 0.0 0.0 0.00 0.00 0.00 48 1014.1
20260904203429 97 227 1.0 1.0 0.00 0.00 0.00 49 1014.0
20260904202924 97 224 0.0 0.0 0.00 0.00 0.00 50 1014.2
20260904202420 97 223 0.0 0.0 0.00 0.00 0.00 50 1014.2
20260904201916 97 210 0.0 1.0 0.00 0.00 0.00 49 1014.4
20260904201411 96 227 1.0 1.0 0.00 0.00 0.00 52 1014.6
20260904200907 96 241 1.0 1.0 0.00 0.00 0.00 51 1014.5
20260904200405 96 235 0.0 0.0 0.00 0.00 0.00 53 1014.5
20260904195900 96 216 0.0 0.0 0.00 0.00 0.00 51 1014.5
20260904195358 97 218 0.0 1.0 0.00 0.00 0.00 52 1014.6
20260904194853 97 226 0.0 1.0 0.00 0.00 0.00 50 1014.6
20260904194352 97 225 0.0 1.0 0.00 0.00 0.00 51 1014.8
20260904193848 98 227 0.0 2.0 0.00 0.00 0.00 48 1014.8
20260904193343 98 214 1.0 3.0 0.00 0.00 0.00 49 1014.9
20260904192838 98 199 1.0 2.0 0.00 0.00 0.00 48 1015.0
20260904192333 97 217 1.0 2.0 0.00 0.00 0.00 49 1015.2
20260904191830 99 208 2.0 3.0 0.00 0.00 0.00 49 1015.3
20260904191326 98 207 1.0 2.0 0.00 0.00 0.00 49 1015.4
20260904190822 98 217 1.0 1.0 0.00 0.00 0.00 47 1015.6
20260904190318 98 222 0.0 2.0 0.00 0.00 0.00 46 1015.5
20260904185814 97 243 1.0 1.0 0.00 0.00 0.00 48 1015.7
20260904185310 98 221 0.0 1.0 0.00 0.00 0.00 48 1015.6
20260904184809 99 217 0.0 1.0 0.00 0.00 0.00 49 1015.5
20260904184304 98 188 2.0 2.0 0.00 0.00 0.00 49 1015.7
20260904183759 99 204 1.0 3.0 0.00 0.00 0.00 47 1016.0
20260904183254 98 158 1.0 1.0 0.00 0.00 0.00 48 1016.0
20260904182749 98 210 1.0 2.0 0.00 0.00 0.00 49 1016.0
20260904182244 98 213 2.0 2.0 0.00 0.00 0.00 48 1016.0
20260904181740 98 220 1.0 3.0 0.00 0.00 0.00 47 1016.0
20260904181239 97 207 2.0 3.0 0.00 0.00 0.00 46 1016.4
20260904180735 97 218 0.0 2.0 0.00 0.00 0.00 49 1016.2
20260904180230 97 199 2.0 3.0 0.00 0.00 0.00 51 1016.1
20260904175729 98 220 1.0 3.0 0.00 0.00 0.00 48 1016.2
20260904175228 97 216 1.0 2.0 0.00 0.00 0.00 50 1016.3